星链-33963 (STARLINK-33963)

导读

STARLINK-33963是美国SpaceX公司于2025年5月13日发射的星链星座卫星,隶属于星链(Starlink)全球卫星互联网项目。作为星链V2迷你卫星批次成员,它运行在近地轨道,采用优化设计提升了带宽容量,助力星链拓展全球高速互联网覆盖,可为偏远地区、应急场景以及航空邮轮等场景提供低延迟宽带服务,是星链持续扩容星座网络的组成部分。

基本信息
目录编号:
63968
目录名称:
STARLINK-33963
国际标识:
2025-099S
轨道中心:
EARTH
卫星名称:
星链-33963
卫星全名:
星链-33963 (STARLINK-33963)
卫星状态:
在轨 (已飞行479 天)
发射日期:
2025-05-13 UTC
国别 :
美国 (US)
星等 :
--
轨道信息
数据来源 国际轨道数据
星历时间: 2026-09-03T16:55:45+0800
21小时前
查看轨道信息
半长轴: 6861.157km
偏心率: 0.0001745
轨道倾角: 43.002°
近地点辐角 278.814°
升交点赤经 252.491°
平近点角 81.251°
近地点: 481.822km
远地点: 484.218km
周期: 94.266分钟
每日圈数: 15.2759
详细信息
固有亮度:
5
最大亮度:
2.5
卫星平台:
Starlink V1.0
覆盖范围:
全球
运营商:
太空探索技术公司
运营商所在国:
美国
制造商(研发单位):
太空探索技术公司
制造商所在国:
美国
使用方式:
暂无
卫星简介
Starlink 计划是 SpaceX 推出的全球卫星互联网项目,通过发射低轨道卫星,为全球尤其是偏远地区提供高速、低延迟的互联网服务。自 2019 年起,Starlink 已部署数千颗卫星,旨在缩小全球数字鸿沟,推动互联网普及。该项目还为军事、航空等行业提供通信支持,带来广泛经济效益。
2D轨道图
3D轨道图
轨道高度分析图
轨道倾角分析图
轨道综合分析图
查看轨道综合分析图